Location: Unspecified
(0.0000°N, 0.0000°E)
Time: 17:56:39
(UTC+00:00)

STARLINK 1025 - Pass Details

Date: 17 January 2020
Orbit: 346 x 354 km, 53.0° (Epoch: 18 January)

Event Time Altitude Azimuth Distance (km) Brightness Sun altitude
Rises 05:24:07 0° 212° (SSW) 2,137 6.5 -10.7°
Reaches altitude 10° 05:26:08 10° 210° (SSW) 1,294 5.4 -10.2°
Maximum altitude 05:29:00 76° 125° (SE) 357 2.8 -9.5°
Drops below altitude 10° 05:31:52 10° 38° (NE) 1,289 5.7 -8.9°
Sets 05:33:52 0° 36° (NE) 2,127 6.8 -8.4°
